Location: Drocourt
(49.0571°N, 1.7669°E)
Time: 10:49:43
(UTC+00:00)

Transit 4A - Pass Details

Date: 14 April 2024
Orbit: 871 x 971 km, 66.8° (Epoch: 24 May)

Event Time Altitude Azimuth Distance (km) Brightness Sun altitude
Rises 21:22:38 0° 325° (NW) 3,476 12.4 -22.5°
Reaches altitude 10° 21:25:16 10° 332° (NNW) 2,531 11.2 -22.8°
Maximum altitude 21:30:49 44° 44° (NE) 1,197 8.5 -23.3°
Enters shadow 21:32:32 35° 85° (E) 1,380 8.5 -23.5°
Drops below altitude 10° 21:36:23 10° 116° (ESE) 2,531 - -23.9°
Sets 21:39:00 0° 123° (ESE) 3,476 - -24.2°
